This is the latest recevied weather packets stored in our database for station/object KO6HRZ. If no packets are shown the sender has not sent any weather packets the latest 10 day(s).
| Time | Temp. | Humidity | Pressure | Rain* | Wind** | Luminosity | Snow |
|---|---|---|---|---|---|---|---|
| 1787944946 | 28.33° C | 38% | 1013.9 hPa | 0 mm | - | 314 W/m² | - |
| 1787944345 | 28.33° C | 38% | 1013.8 hPa | 0 mm | - | 419 W/m² | - |
| 1787943741 | 27.78° C | 41% | 1013.9 hPa | 0 mm | - | 357 W/m² | - |
| 1787943138 | 27.78° C | 41% | 1013.9 hPa | 0 mm | - | 338 W/m² | - |
| 1787942534 | 26.67° C | 43% | 1014.3 hPa | 0 mm | - | 286 W/m² | - |
| 1787941929 | 26.67° C | 42% | 1014.1 hPa | 0 mm | - | 248 W/m² | - |
| 1787941328 | 26.67° C | 42% | 1014 hPa | 0 mm | - | 236 W/m² | - |
| 1787940727 | 26.67° C | 43% | 1014 hPa | 0 mm | - | 270 W/m² | - |
| 1787940126 | 26.11° C | 46% | 1013.9 hPa | 0 mm | - | 276 W/m² | - |
| 1787939525 | 25.56° C | 45% | 1013.8 hPa | 0 mm | - | 238 W/m² | - |
| 1787938920 | 25.56° C | 46% | 1013.9 hPa | 0 mm | - | 268 W/m² | - |
| 1787938316 | 25° C | 47% | 1013.8 hPa | 0 mm | - | 302 W/m² | - |
| 1787937712 | 24.44° C | 48% | 1013.5 hPa | 0 mm | - | 177 W/m² | - |
| 1787937110 | 23.89° C | 47% | 1013.3 hPa | 0 mm | - | 132 W/m² | - |
| 1787936510 | 23.89° C | 48% | 1013.3 hPa | 0 mm | - | 115 W/m² | - |
| 1787935906 | 23.89° C | 49% | 1013.1 hPa | 0 mm | - | 94 W/m² | - |
| 1787935303 | 23.89° C | 49% | 1012.9 hPa | 0 mm | - | 94 W/m² | - |
| 1787934698 | 23.89° C | 50% | 1012.9 hPa | 0 mm | - | 113 W/m² | - |
| 1787934097 | 23.33° C | 52% | 1012.7 hPa | 0 mm | - | 138 W/m² | - |
| 1787933491 | 22.78° C | 52% | 1012.7 hPa | 0 mm | - | 130 W/m² | - |
| 1787932887 | 22.78° C | 53% | 1012.6 hPa | 0 mm | - | 112 W/m² | - |
| 1787932285 | 22.22° C | 53% | 1012.5 hPa | 0 mm | - | 98 W/m² | - |
| 1787931685 | 22.22° C | 56% | 1012.4 hPa | 0 mm | - | 88 W/m² | - |
| 1787931081 | 21.67° C | 57% | 1012.3 hPa | 0 mm | - | 84 W/m² | - |
| 1787930480 | 21.67° C | 56% | 1011.9 hPa | 0 mm | - | 61 W/m² | - |
* Rain latest hour (hover to see other rain measurements)
** Current wind speed in m/s (hover to see current wind gust speed)